Hourly Weather Etchmiadzin

Today, 9 July, Thursday

Time Temperature Precipitation Wind Pressure Humidity
00:00 +26°C° 0.1 mm 3 mps 685 mmHg 49%
01:00 +25°C° 0 mm 3 mps 685 mmHg 50%
02:00 +24°C° 0 mm 3 mps 685 mmHg 52%
03:00 +24°C° 0 mm 3 mps 685 mmHg 54%
04:00 +24°C° 0 mm 2 mps 685 mmHg 54%
05:00 +25°C° 0 mm 2 mps 685 mmHg 53%
06:00 +25°C° 0 mm 2 mps 685 mmHg 53%
07:00 +27°C° 0 mm 2 mps 685 mmHg 49%
08:00 +28°C° 0 mm 2 mps 685 mmHg 45%
09:00 +30°C° 0 mm 2 mps 685 mmHg 41%
10:00 +31°C° 0.1 mm 2 mps 686 mmHg 37%
11:00 +34°C° 0.1 mm 2 mps 686 mmHg 33%
12:00 +35°C° 0.1 mm 2 mps 686 mmHg 28%
13:00 +36°C° 0.1 mm 2 mps 686 mmHg 27%
14:00 +37°C° 0.1 mm 2 mps 686 mmHg 26%
15:00 +37°C° 0.1 mm 2 mps 685 mmHg 24%
16:00 +34°C° 0.6 mm 3 mps 685 mmHg 34%
17:00 +30°C° 0.6 mm 3 mps 685 mmHg 44%
18:00 +27°C° 0.6 mm 4 mps 684 mmHg 55%
19:00 +27°C° 0.1 mm 4 mps 685 mmHg 56%
20:00 +26°C° 0.1 mm 3 mps 686 mmHg 58%
21:00 +26°C° 0.1 mm 3 mps 686 mmHg 60%
22:00 +25°C° 0.1 mm 3 mps 686 mmHg 63%
23:00 +24°C° 0.1 mm 2 mps 686 mmHg 65%

Tomorrow, 10 July, Friday

Time Temperature Precipitation Wind Pressure Humidity
00:00 +23°C° 0.1 mm 2 mps 686 mmHg 67%
01:00 +23°C° 0.1 mm 1 mps 686 mmHg 68%
02:00 +22°C° 0.1 mm 1 mps 685 mmHg 69%
03:00 +22°C° 0.1 mm 1 mps 685 mmHg 70%
04:00 +22°C° 0 mm 1 mps 685 mmHg 68%
05:00 +23°C° 0 mm 1 mps 686 mmHg 66%
06:00 +24°C° 0 mm 1 mps 686 mmHg 64%
07:00 +25°C° 0.3 mm 2 mps 686 mmHg 59%
08:00 +27°C° 0.3 mm 2 mps 686 mmHg 54%
09:00 +28°C° 0.3 mm 2 mps 686 mmHg 49%
10:00 +29°C° 0.4 mm 2 mps 686 mmHg 45%
11:00 +31°C° 0.4 mm 2 mps 686 mmHg 41%
12:00 +32°C° 0.4 mm 2 mps 686 mmHg 38%
13:00 +34°C° 0.1 mm 2 mps 686 mmHg 35%
14:00 +35°C° 0.1 mm 2 mps 686 mmHg 33%
15:00 +34°C° 0.1 mm 1 mps 686 mmHg 31%
16:00 +32°C° 0.4 mm 2 mps 685 mmHg 38%
17:00 +30°C° 0.4 mm 3 mps 685 mmHg 46%
18:00 +27°C° 0.4 mm 4 mps 685 mmHg 53%
19:00 +26°C° 0.1 mm 3 mps 685 mmHg 57%
20:00 +25°C° 0.1 mm 2 mps 686 mmHg 61%
21:00 +24°C° 0.1 mm 1 mps 686 mmHg 65%
22:00 +24°C° 0.2 mm 1 mps 686 mmHg 67%
23:00 +23°C° 0.2 mm 1 mps 686 mmHg 69%

Day after tomorrow, 11 July, Saturday

Time Temperature Precipitation Wind Pressure Humidity
00:00 +23°C° 0.2 mm 1 mps 686 mmHg 70%
01:00 +22°C° 0.4 mm 1 mps 686 mmHg 71%
02:00 +22°C° 0.4 mm 1 mps 685 mmHg 72%
03:00 +22°C° 0.4 mm 1 mps 685 mmHg 74%
04:00 +22°C° 0.5 mm 1 mps 686 mmHg 72%
05:00 +22°C° 0.5 mm 1 mps 686 mmHg 71%
06:00 +23°C° 0.5 mm 1 mps 686 mmHg 70%
07:00 +24°C° 0.2 mm 1 mps 686 mmHg 64%
08:00 +26°C° 0.2 mm 1 mps 686 mmHg 58%
09:00 +28°C° 0.2 mm 1 mps 686 mmHg 52%
10:00 +29°C° 0.2 mm 1 mps 686 mmHg 47%
11:00 +31°C° 0.2 mm 1 mps 686 mmHg 42%
12:00 +32°C° 0.2 mm 1 mps 686 mmHg 37%
13:00 +34°C° 0.1 mm 2 mps 686 mmHg 35%
14:00 +35°C° 0.1 mm 2 mps 686 mmHg 33%
15:00 +35°C° 0.1 mm 2 mps 686 mmHg 31%
16:00 +35°C° 0.1 mm 3 mps 685 mmHg 32%
17:00 +34°C° 0.1 mm 3 mps 685 mmHg 34%
18:00 +34°C° 0.1 mm 3 mps 685 mmHg 36%
19:00 +30°C° 0.5 mm 4 mps 685 mmHg 44%
20:00 +28°C° 0.5 mm 5 mps 685 mmHg 53%
21:00 +25°C° 0.5 mm 5 mps 685 mmHg 62%
22:00 +25°C° 0.6 mm 4 mps 685 mmHg 64%
23:00 +24°C° 0.6 mm 3 mps 685 mmHg 67%

12 July, Sunday

Time Temperature Precipitation Wind Pressure Humidity
00:00 +24°C° 0.6 mm 3 mps 685 mmHg 69%
01:00 +23°C° 0.1 mm 2 mps 685 mmHg 71%
02:00 +23°C° 0.1 mm 2 mps 684 mmHg 73%
03:00 +22°C° 0.1 mm 1 mps 684 mmHg 75%
04:00 +23°C° 0 mm 1 mps 684 mmHg 73%
05:00 +23°C° 0 mm 1 mps 684 mmHg 71%
06:00 +23°C° 0 mm 1 mps 684 mmHg 69%
07:00 +25°C° 0.1 mm 1 mps 684 mmHg 63%
08:00 +26°C° 0.1 mm 1 mps 684 mmHg 58%
09:00 +28°C° 0.1 mm 1 mps 684 mmHg 52%
10:00 +29°C° 0.2 mm 2 mps 684 mmHg 47%
11:00 +31°C° 0.2 mm 2 mps 684 mmHg 43%
12:00 +32°C° 0.2 mm 2 mps 684 mmHg 38%
13:00 +34°C° 0.1 mm 2 mps 684 mmHg 35%
14:00 +35°C° 0.1 mm 2 mps 684 mmHg 32%
15:00 +36°C° 0.1 mm 2 mps 684 mmHg 29%
16:00 +35°C° 0.1 mm 3 mps 684 mmHg 31%
17:00 +35°C° 0.1 mm 3 mps 684 mmHg 32%
18:00 +34°C° 0.1 mm 4 mps 683 mmHg 34%
19:00 +32°C° 0.1 mm 4 mps 684 mmHg 39%
20:00 +29°C° 0.1 mm 4 mps 684 mmHg 43%
21:00 +27°C° 0.1 mm 4 mps 684 mmHg 47%
22:00 +26°C° 0.4 mm 3 mps 683 mmHg 52%
23:00 +25°C° 0.4 mm 3 mps 683 mmHg 57%

13 July, Monday

Time Temperature Precipitation Wind Pressure Humidity
00:00 +24°C° 0.4 mm 2 mps 683 mmHg 62%
01:00 +24°C° 0.5 mm 2 mps 683 mmHg 64%
02:00 +23°C° 0.5 mm 2 mps 682 mmHg 67%
03:00 +23°C° 0.5 mm 2 mps 682 mmHg 70%
04:00 +23°C° 0.2 mm 1 mps 682 mmHg 68%
05:00 +24°C° 0.2 mm 1 mps 682 mmHg 67%
06:00 +24°C° 0.2 mm 1 mps 682 mmHg 66%
07:00 +26°C° 0.1 mm 1 mps 682 mmHg 59%
08:00 +27°C° 0.1 mm 1 mps 682 mmHg 53%
09:00 +29°C° 0.1 mm 1 mps 682 mmHg 47%
10:00 +30°C° 0.1 mm 1 mps 682 mmHg 43%
11:00 +32°C° 0.1 mm 1 mps 682 mmHg 39%
12:00 +34°C° 0.1 mm 2 mps 682 mmHg 34%
13:00 +35°C° 0.1 mm 2 mps 682 mmHg 32%
14:00 +36°C° 0.1 mm 2 mps 682 mmHg 30%
15:00 +37°C° 0.1 mm 2 mps 682 mmHg 28%
16:00 +34°C° 0.5 mm 3 mps 682 mmHg 37%
17:00 +30°C° 0.5 mm 3 mps 681 mmHg 46%
18:00 +27°C° 0.5 mm 4 mps 681 mmHg 55%
19:00 +26°C° 0.2 mm 3 mps 681 mmHg 57%
20:00 +25°C° 0.2 mm 3 mps 682 mmHg 59%
21:00 +24°C° 0.2 mm 2 mps 683 mmHg 61%
22:00 +24°C° 0.1 mm 2 mps 683 mmHg 63%
23:00 +24°C° 0.1 mm 2 mps 683 mmHg 64%

14 July, Tuesday

Time Temperature Precipitation Wind Pressure Humidity
00:00 +23°C° 0.1 mm 1 mps 683 mmHg 66%
01:00 +23°C° 0 mm 1 mps 683 mmHg 67%
02:00 +22°C° 0 mm 1 mps 683 mmHg 68%
03:00 +22°C° 0 mm 1 mps 682 mmHg 70%
04:00 +22°C° 0 mm 1 mps 683 mmHg 67%
05:00 +23°C° 0 mm 1 mps 683 mmHg 65%
06:00 +23°C° 0 mm 1 mps 683 mmHg 62%
07:00 +25°C° 0 mm 1 mps 684 mmHg 56%
08:00 +27°C° 0 mm 1 mps 684 mmHg 50%
09:00 +29°C° 0 mm 2 mps 684 mmHg 44%
10:00 +30°C° 0.1 mm 2 mps 684 mmHg 40%
11:00 +32°C° 0.1 mm 2 mps 684 mmHg 36%
12:00 +34°C° 0.1 mm 2 mps 684 mmHg 32%
13:00 +34°C° 0.1 mm 1 mps 684 mmHg 30%
14:00 +35°C° 0.1 mm 1 mps 684 mmHg 28%
15:00 +36°C° 0.1 mm 1 mps 684 mmHg 25%
16:00 +35°C° 0 mm 1 mps 684 mmHg 27%
17:00 +36°C° 0 mm 2 mps 684 mmHg 29%
18:00 +35°C° 0 mm 2 mps 684 mmHg 32%
19:00 +33°C° 0 mm 3 mps 684 mmHg 37%
20:00 +30°C° 0 mm 3 mps 685 mmHg 42%
21:00 +28°C° 0 mm 3 mps 685 mmHg 47%
22:00 +27°C° 0.3 mm 3 mps 685 mmHg 51%
23:00 +26°C° 0.3 mm 2 mps 685 mmHg 55%
Show more